Regional Weather Roundup
Issued by NWS

Home | Current Version | Previous Version | Graphics & Text | Print | Product List | Glossary On
Versions: 1 2 3 4 5 6 7 8 9 10 11 12 13 14 15 16 17 18 19 20 21 22 23 24 25 26 27 28 29 30 31 32 33 34 35 36 37 38 39 40 41 42 43 44 45 46 47 48 49 50
000
ASUS44 KMEG 250810
RWRTN
TENNESSEE HOURLY STATE WEATHER ROUNDUP
NATIONAL WEATHER SERVICE MEMPHIS TN
300 AM CDT WED MAY 25 2016

TNZ002-004-019-021-049-052-054-088>092-250900-
WEST TENNESSEE

CITY           SKY/WX    TMP DP  RH WIND       PRES   REMARKS
MEMPHIS INTL   MOCLDY    68  64  87 SE6       30.02F
NWS MEMPHIS      N/A     65 N/A N/A MISG        N/A
JACKSON        PTCLDY    64  63  96 CALM      30.04F FOG
DYERSBURG      PTCLDY    66  64  94 CALM      30.04R
UNION CITY     CLOUDY    68  66  94 SE5       30.01F
PARIS          MOCLDY    64  63  94 W3        30.05R
LEXINGTON      CLEAR     66  61  82 CALM      30.05R
$$

TNZ008-025-027-028-033-062-065-066-250900-
NORTH MIDDLE TENNESSEE

CITY           SKY/WX    TMP DP  RH WIND       PRES   REMARKS
NASHVILLE      CLOUDY    67  56  67 S5        30.07S
CLARKSVILLE    CLOUDY    69  60  73 CALM      30.05R
SMYRNA         CLEAR     64  57  78 SE6       30.08F
COOKEVILLE     CLEAR     57  55  94 CALM      30.11F
CROSSVILLE     PTCLDY    65  52  62 CALM      30.17F
$$

TNZ061-075-076-078-094-096-097-250900-
SOUTH MIDDLE TENNESSEE

CITY           SKY/WX    TMP DP  RH WIND       PRES   REMARKS
FAYETTEVILLE   MOCLDY    66  55  68 S7        30.10F
TULLAHOMA      CLEAR     59  57  94 CALM      30.12S
WINCHESTER     CLEAR     63  54  72 E3        30.12F
MCMINNVILLE    CLEAR     57  57 100 CALM      30.11F
COLUMBIA       CLEAR     72  70  94 S7        30.05R
SHELBYVILLE    CLEAR     70  55  60 S5        30.10S
$$

TNZ017-018-042-046-047-250900-
NORTHEAST TENNESSEE

CITY           SKY/WX    TMP DP  RH WIND       PRES   REMARKS
TRI CITIES     CLEAR     51  49  92 NE3       30.20S
$$

TNZ012-013-036-069-073-074-250900-
CENTRAL EAST TENNESSEE

CITY           SKY/WX    TMP DP  RH WIND       PRES   REMARKS
KNOXVILLE      CLEAR     60  55  83 CALM      30.15S
OAK RIDGE      CLEAR     59  56  89 CALM      30.17S
GATLINBURG     MOCLDY    55  50  82 CALM      30.16S
$$

TNZ083-085-099-250900-
SOUTHEAST TENNESSEE

CITY           SKY/WX    TMP DP  RH WIND       PRES   REMARKS
CHATTANOOGA    CLEAR     63  57  81 CALM      30.14F
$$

SKY/WX REPORTED AS FAIR MEANS FEW OR NO CLOUDS BELOW
12 THOUSAND FEET.




USA.gov is the U.S. government's official web portal to all federal, state and local government web resources and services.